Regional Weather Roundup
Issued by NWS Bismarck, ND

Home | Current Version | Previous Version | Text Only | Print | Product List | Glossary On
Versions: 1 2 3 4 5 6 7 8 9 10 11 12 13 14 15 16 17 18 19 20 21 22 23 24 25 26 27 28 29 30 31 32 33 34 35 36 37 38 39 40 41 42 43 44 45 46 47 48 49 50
637
ASUS43 KBIS 231710
RWRBIS

NWR BROADCAST TEXT
NATIONAL WEATHER SERVICE BISMARCK ND
1200 PM CDT MON MAY 23 2016

NOTE: "FAIR" INDICATES FEW OR NO CLOUDS BELOW 12,000 FEET WITH NO
SIGNIFICANT WEATHER AND/OR OBSTRUCTIONS TO VISIBILITY.


CITY           SKY/WX    TMP DP  RH WIND       PRES   REMARKS
WILLISTON      MOSUNNY   70  33  25 SW17G24   29.63F
MINOT          SUNNY     78  34  20 SW16G28   29.61S
MINOT AFB      SUNNY     73  39  29 SW17      29.60S
BISMARCK       SUNNY     75  41  29 W10       29.68S
DICKINSON      SUNNY     68  29  23 W18       29.68S
GARRISON         N/A     73  38  27 SW18G24   29.65S
HETTINGER ARPT SUNNY     69  34  27 W8        29.73F
JAMESTOWN      SUNNY     73  55  53 W13       29.66S
BEACH          FAIR      66  32  28 W23G31    29.72F
CARRINGTON     FAIR      72  50  46 W15G22    29.68R
HAZEN          FAIR      72  34  25 W15G22    29.68F
LINTON         FAIR      72  54  53 W9          N/A
MANDAN         FAIR      72  39  30 W15       29.69S
OAKES            N/A    N/A N/A N/A MISG        N/A
RUGBY          FAIR      72  45  37 SW10      29.63S
STANLEY        FAIR      68  37  32 SW17G29   29.66S
WATFORD CITY   FAIR      68  32  26 SW17G25   29.66R
$$

CITY           SKY/WX    TMP DP  RH WIND       PRES   REMARKS
GRAND FORKS    MOSUNNY   75  60  59 W12       29.62R
GRAND FORKS AF SUNNY     75  57  53 W12       29.63R
DEVILS LAKE    SUNNY     72  51  47 W14       29.65R
FARGO          SUNNY     78  55  44 W15G22    29.65R
CAVALIER       FAIR      72  63  73 SW10G17   29.59S
GRAFTON        FAIR      73  61  64 SW15      29.63R
GWINNER        FAIR      73  57  56 SW13      29.69R
LANGDON        FAIR      73  55  53 W17G24    29.63R
ROLLA          FAIR      68  45  42 SW14      29.63R
WALHALLA       FAIR      73  54  49 W10G17    29.59R
$$

CITY           SKY/WX    TMP DP  RH WIND       PRES   REMARKS
ABERDEEN       SUNNY     74  55  51 SW13      29.71S
MOBRIDGE       SUNNY     72  49  44 W5        29.68F
BUFFALO          N/A     68  29  23 NW12G21   29.68F
RAPID CITY     SUNNY     69  40  34 VRB5      29.76F
GLASGOW        CLOUDY    56  41  57 W25G37    29.63R
SIDNEY         MOSUNNY   70  36  28 SW18      29.64S
WOLF POINT     CLOUDY    63  40  42 W15       29.64R
MILES CITY     SUNNY     66  31  27 W23G30    29.71S
BAKER          SUNNY     66  32  28 W23G36    29.72S
$$

CITY           SKY/WX    TMP DP  RH WIND       PRES   REMARKS
BILLINGS       PTSUNNY   61  31  32 W20       29.76S
GREAT FALLS    CLOUDY    53  34  48 SW23G31   29.70R
REGINA         PTSUNNY   55  37  50 SW17G23   29.55R
$$





USA.gov is the U.S. government's official web portal to all federal, state and local government web resources and services.